Location: Killam
(52.7910°N, 111.8608°W)
Time: 14:37:02
(UTC+00:00)

BlueWalker 3 - Pass Details

Date: 25 January 2026
Orbit: 451 x 461 km, 53.2° (Epoch: 16 February)

Event Time Altitude Azimuth Distance (km) Brightness Sun altitude
Rises 00:58:55 0° 210° (SSW) 2,449 6.3 -9.1°
Reaches altitude 10° 01:01:21 10° 194° (SSW) 1,579 4.9 -9.4°
Maximum altitude 01:04:08 22° 143° (SE) 1,043 3.4 -9.8°
Enters shadow 01:06:25 13° 96° (E) 1,428 3.7 -10.2°
